Location: Mound City (historical)
(34.0564°N, 117.2656°W)
Time: 01:40:26
(UTC+00:00)

SL-16 R/B - Pass Details

Date: 08 September 2024
Orbit: 985 x 1006 km, 99.7° (Epoch: 10 October)

Event Time Altitude Azimuth Distance (km) Brightness Sun altitude
Exits shadow 12:28:56 12° 286° (WNW) 2,645 4.3 -12.8°
Drops below altitude 10° 12:29:50 10° 294° (WNW) 2,762 4.4 -12.6°
Sets 12:34:02 0° 321° (NW) 3,722 5.3 -11.8°
